AirNav   Phillips 66 Aviation Fuel
 
 302 users online  

63K Hillside Airport
Stilwell, Kansas, USA

GOING TO STILWELL?


FAA INFORMATION EFFECTIVE 12 SEPTEMBER 2019

Location

FAA Identifier: 63K
Lat/Long: 38-49-16.5000N 094-36-34.3000W
38-49.275000N 094-36.571667W
38.8212500,-94.6095278
(estimated)
Elevation: 1025 ft. / 312 m (estimated)
Variation: 05E (1985)
From city: 4 miles NE of STILWELL, KS
Time zone: UTC -5 (UTC -6 during Standard Time)
Zip code: 66085

Airport Operations

Airport use: Open to the public
Activation date: 01/1956
Control tower: no
ARTCC: KANSAS CITY CENTER
FSS: COLUMBIA FLIGHT SERVICE STATION
NOTAMs facility: COU (NOTAM-D service available)
Attendance: UNATNDD
Wind indicator: yes
Segmented circle: no

Airport Communications

CTAF: 122.9
WX ASOS at OJC (6 nm W): PHONE 913-780-6969
WX ASOS at IXD (13 nm W): 135.325 (913-780-6987)
WX ASOS at LXT (14 nm NE): 124.175 (816-347-9807)
WX AWOS-3PT at LRY (18 nm SE): 119.975 (816-380-5936)
WX ASOS at MKC (18 nm N): PHONE 816-329-2843

Nearby radio navigation aids

VOR radial/distance  VOR name  Freq  Var
ANXr227/27.8NAPOLEON VORTAC114.0007E
MCIr163/28.5KANSAS CITY VORTAC113.2505E
BUMr343/33.4BUTLER VORTAC115.9007E

 
NDB name  Hdg/Dist  Freq  Var  ID
HERBB052/7.242004EPK .--. -.-

Airport Services

Parking: tiedowns
Airframe service: NONE
Powerplant service: NONE
Bottled oxygen: NONE
Bulk oxygen: NONE

Runway Information

Runway 17/35

Dimensions: 2000 x 56 ft. / 610 x 17 m
Surface: turf/gravel, in fair condition
Gradient: END OF RY 35.
RUNWAY 17  RUNWAY 35
Latitude: 38-49.439000N38-49.109500N
Longitude: 094-36.571500W094-36.572667W
Traffic pattern: rightleft
Displaced threshold: no150 ft.
Obstructions: 50 ft. trees, 149 ft. from runway, 58 ft. right of centerline, 3:1 slope to clear16 ft. trees, 196 ft. from runway, 12:1 slope to clear
APCH SLOPE TO DSPLCD THLD 20:1

Airport Ownership and Management from official FAA records

Ownership: Privately-owned
Owner: W. SHELDON/TOM TIETZE
16885 S. KENNETH RD
STILWELL, KS 66085
Manager: WILLIAM C. SHELDON
16935 S. KENNETH RD
STILWELL, KS 66085
Phone 913-897-2647

Airport Operational Statistics

Aircraft based on the field: 11
Single engine airplanes: 7
Ultralights: 4
    
Aircraft operations: avg 38/week *
65% local general aviation
35% transient general aviation
* for 12-month period ending 31 August 2016

Additional Remarks

WILDLIFE ON & INVOF ARPT.
TREES AND UNEVEN TERRAIN BOTH SIDES OF RY. TREES IN APCH ZONES.
+10 EARTH EMBANKMENT MIDFLD, W. EDGE OF RY.
FOR CD CTC KANSAS CITY APCH AT 816-329-2710.

Instrument Procedures

There are no published instrument procedures at 63K.

Some nearby airports with instrument procedures:

KOJC - Johnson County Executive Airport (6 nm W)
KIXD - New Century AirCenter Airport (13 nm W)
KLXT - Lee's Summit Municipal Airport (14 nm NE)
KLRY - Lawrence Smith Memorial Airport (18 nm SE)
KMKC - Charles B Wheeler Downtown Airport (18 nm N)
 
Loc | Ops | Rwys | IFR | FBO | Links
Com | Nav | Svcs | Stats | Notes

Kansas City Aviation Department
 
Area around 63K (Hillside Airport)
 
Road maps at: MapQuest Bing Google
 
Aerial photo
WARNING: Photo may not be current or correct
Aerial photo of 63K (Hillside Airport)
Do you have a better or more recent aerial photo of Hillside Airport that you would like to share? If so, please send us your photo.

 
Sectional chart

 
Airport distance calculator
Flying to Hillside Airport? Find the distance to fly.

From to 63K

Sunrise and sunset
Times for 16-Sep-2019
 Local
(UTC-5)
 Zulu
(UTC)
Morning civil twilight06:3511:35
Sunrise07:0212:02
Sunset19:2500:25
Evening civil twilight19:5200:52

Current date and time
Zulu (UTC)  16-Sep-2019 09:33:38
Local (UTC-5)  16-Sep-2019 04:33:38
 
METAR
KOJC 
6nm W 
160853Z AUTO 20004KT 10SM CLR 22/21 A3007 RMK AO2 SLP169 T02220206 51004
KIXD 
13nm W 
160853Z AUTO 18004KT 7SM CLR 21/20 A3007 RMK AO2 SLP171 T02110200 51003
KLXT 
14nm NE 
160853Z AUTO 21006KT 10SM CLR 24/20 A3007 RMK AO2 SLP171 T02390200 51005 $
KMKC 
18nm N 
160854Z 22003KT 10SM CLR 25/20 A3004 RMK AO2 SLP163 T02500200 51005
KLRY 
18nm SE 
160915Z AUTO 00000KT 5SM BR CLR 21/20 A3010 RMK AO2
TAF
KIXD 
13nm W 
160520Z 1606/1706 18004KT P6SM SKC
KMKC 
18nm N 
160520Z 1606/1706 19007KT P6SM SKC
NOTAMs
Click for the latest NOTAMs
NOTAMs are issued by the DoD/FAA and will open in a separate window not controlled by AirNav.

 

 
 

Would you like to see your business listed on this page?

 If your business provides an interesting product or service to pilots, flight crews, aircraft, or users of the Hillside Airport, you should consider listing it here.  To start the listing process, click on the button below
 
Add a business
 

Other Pages about Hillside Airport

Update a link
 
Copyright © AirNav, LLC. All rights reserved. Privacy Policy  Contact